Weather History for KCEY - January, 2013

Change the Weather History Date:

Monday, January 21, 2013

  Actual Average (KPAH) Record (KPAH)
Temperature  
Mean Temperature 28 °F 34 °F  
Max Temperature 33 °F 43 °F 70 °F (1986)
Min Temperature 23 °F 26 °F -10 °F (1985)
Degree Days  
Heating Degree Days 37 30  
Month to date heating degree days 647  
Since 1 July heating degree days 2278  
Cooling Degree Days 0 0  
Month to date cooling degree days 0  
Year to date cooling degree days 0  
Moisture  
Dew Point 13 °F    
Average Humidity 56    
Maximum Humidity 74    
Minimum Humidity 38    
Precipitation  
Precipitation 0.00 in 0.12 in 1.89 in (1973)
Month to date precipitation 2.48  
Year to date precipitation 2.48  
Snow  
Snow 0.00 in 0.10 in 1.00 in (1979)
Month to date snowfall 1.9  
Since 1 July snowfall 4.2  
Snow Depth -    
Sea Level Pressure  
Sea Level Pressure 30.29 in    
Wind  
Wind Speed 8 mph (NNW)    
Max Wind Speed 16 mph    
Max Gust Speed 22 mph    
Visibility 10 miles    
Events      
T = Trace of Precipitation, MM = Missing Value Source: NWS Daily Summary

Daily Weather History Graph

Daily Weather History Graph

Search for Another Location

Airport or City:

Trip Planner

Search our weather history database for the weather conditions in past years. The results will help you decide how hot, cold, wet, or windy it might be!

Date:

Astronomy

Jan. 21, 2013 Rise Set
Actual Time 7:02 AM CST 5:07 PM CST
Civil Twilight 6:34 AM CST 5:35 PM CST
Nautical Twilight 6:03 AM CST 6:07 PM CST
Astronomical Twilight 5:32 AM CST 6:37 PM CST
Moon 12:48 PM CST (1/21) 2:30 AM CST (1/21)
Length of Visible Light 11h 00m
Length of Day
10h 05m
Waxing Gibbous, 75% of the Moon is Illuminated
Jan 21
Waxing Gibbous
Jan 26
Full
Feb 3
Last Quarter
Feb 10
New
Feb 17
First Quarter

Hourly Weather History & Observations

Time (CST) Temp. Windchill Dew Point Humidity Pressure Visibility Wind Dir Wind Speed Gust Speed Precip Events Conditions
12:15 AM 28.4 °F 21.2 °F 17.6 °F 64% 30.22 in 10.0 mi NNE 6.9 mph - N/A   Clear
12:35 AM 28.4 °F 23.3 °F 17.6 °F 64% 30.22 in 10.0 mi NNE 4.6 mph - N/A   Clear
12:55 AM 28.4 °F 22.2 °F 17.6 °F 64% 30.22 in 10.0 mi North 5.8 mph - N/A   Clear
1:15 AM 26.6 °F 20.0 °F 17.6 °F 69% 30.22 in 10.0 mi North 5.8 mph - N/A   Clear
1:35 AM 26.6 °F 20.0 °F 17.6 °F 69% 30.23 in 10.0 mi North 5.8 mph - N/A   Clear
1:55 AM 26.6 °F 20.0 °F 17.6 °F 69% 30.23 in 10.0 mi North 5.8 mph - N/A   Clear
2:15 AM 26.6 °F 18.2 °F 17.6 °F 69% 30.24 in 10.0 mi North 8.1 mph - N/A   Clear
2:35 AM 26.6 °F 20.0 °F 17.6 °F 69% 30.24 in 10.0 mi North 5.8 mph - N/A   Clear
2:55 AM 26.6 °F 18.2 °F 17.6 °F 69% 30.25 in 10.0 mi North 8.1 mph - N/A   Clear
3:15 AM 24.8 °F 16.9 °F 17.6 °F 74% 30.25 in 10.0 mi North 6.9 mph - N/A   Partly Cloudy
3:35 AM 24.8 °F 17.9 °F 17.6 °F 74% 30.25 in 10.0 mi North 5.8 mph - N/A   Mostly Cloudy
3:55 AM 26.6 °F 21.2 °F 17.6 °F 69% 30.25 in 10.0 mi North 4.6 mph - N/A   Overcast
4:15 AM 24.8 °F 17.9 °F 17.6 °F 74% 30.26 in 10.0 mi NNW 5.8 mph - N/A   Overcast
4:35 AM 24.8 °F 19.1 °F 17.6 °F 74% 30.26 in 10.0 mi NNW 4.6 mph - N/A   Scattered Clouds
4:55 AM 24.8 °F 17.9 °F 17.6 °F 74% 30.26 in 10.0 mi NNW 5.8 mph - N/A   Clear
5:15 AM 26.6 °F 18.2 °F 17.6 °F 69% 30.27 in 10.0 mi NNW 8.1 mph - N/A   Clear
5:35 AM 26.6 °F 18.2 °F 17.6 °F 69% 30.27 in 10.0 mi NNW 8.1 mph - N/A   Clear
5:55 AM 26.6 °F 18.2 °F 17.6 °F 69% 30.28 in 10.0 mi NNW 8.1 mph - N/A   Clear
6:15 AM 24.8 °F 15.3 °F 17.6 °F 74% 30.28 in 10.0 mi NNW 9.2 mph - N/A   Clear
6:35 AM 24.8 °F 16.1 °F 15.8 °F 69% 30.29 in 10.0 mi NNW 8.1 mph - N/A   Clear
6:55 AM 24.8 °F 16.9 °F 15.8 °F 69% 30.30 in 10.0 mi NNW 6.9 mph - N/A   Clear
7:15 AM 24.8 °F 16.1 °F 15.8 °F 69% 30.31 in 10.0 mi NNW 8.1 mph - N/A   Clear
7:35 AM 24.8 °F 15.3 °F 15.8 °F 69% 30.31 in 10.0 mi NNW 9.2 mph - N/A   Clear
7:55 AM 24.8 °F 16.1 °F 15.8 °F 69% 30.32 in 10.0 mi NNW 8.1 mph - N/A   Clear
8:15 AM 26.6 °F 16.8 °F 15.8 °F 64% 30.32 in 10.0 mi NNW 10.4 mph - N/A   Clear
8:35 AM 26.6 °F 16.2 °F 15.8 °F 64% 30.33 in 10.0 mi NNW 11.5 mph - N/A   Clear
8:55 AM 26.6 °F 15.7 °F 15.8 °F 64% 30.33 in 10.0 mi NNW 12.7 mph - N/A   Clear
9:15 AM 26.6 °F 15.7 °F 15.8 °F 64% 30.34 in 10.0 mi NW 12.7 mph - N/A   Clear
9:35 AM 26.6 °F 14.3 °F 14.0 °F 59% 30.35 in 10.0 mi NNW 16.1 mph 21.9 mph N/A   Clear
9:55 AM 26.6 °F 15.7 °F 10.4 °F 51% 30.35 in 10.0 mi NNW 12.7 mph - N/A   Clear
10:15 AM 28.4 °F 18.0 °F 10.4 °F 47% 30.35 in 10.0 mi North 12.7 mph - N/A   Clear
10:35 AM 28.4 °F 19.7 °F 10.4 °F 47% 30.35 in 10.0 mi North 9.2 mph - N/A   Clear
10:55 AM 28.4 °F 19.1 °F 10.4 °F 47% 30.34 in 10.0 mi NNW 10.4 mph - N/A   Clear
11:15 AM 30.2 °F 21.9 °F 12.2 °F 47% 30.32 in 10.0 mi NW 9.2 mph - N/A   Clear
11:55 AM 32.0 °F 23.6 °F 10.4 °F 41% 30.30 in 10.0 mi WNW 10.4 mph - N/A   Clear
12:15 PM 32.0 °F 22.5 °F 10.4 °F 41% 30.29 in 10.0 mi WNW 12.7 mph - N/A   Clear
12:35 PM 32.0 °F 21.6 °F 10.4 °F 41% 30.29 in 10.0 mi NW 15.0 mph 18.4 mph N/A   Clear
12:55 PM 32.0 °F 21.6 °F 10.4 °F 41% 30.29 in 10.0 mi WNW 15.0 mph 18.4 mph N/A   Clear
1:15 PM 32.0 °F 22.1 °F 10.4 °F 41% 30.28 in 10.0 mi WNW 13.8 mph - N/A   Clear
1:35 PM 32.0 °F 23.0 °F 10.4 °F 41% 30.28 in 10.0 mi NW 11.5 mph - N/A   Clear
1:55 PM 33.8 °F 24.8 °F 10.4 °F 38% 30.27 in 10.0 mi NW 12.7 mph 17.3 mph N/A   Clear
2:15 PM 33.8 °F 24.3 °F 10.4 °F 38% 30.27 in 10.0 mi NW 13.8 mph - N/A   Clear
2:35 PM 33.8 °F 24.8 °F 10.4 °F 38% 30.28 in 10.0 mi NNW 12.7 mph 20.7 mph N/A   Clear
2:55 PM 33.8 °F 24.8 °F 10.4 °F 38% 30.28 in 10.0 mi NW 12.7 mph 19.6 mph N/A   Clear
3:15 PM 33.8 °F 25.8 °F 10.4 °F 38% 30.28 in 10.0 mi NW 10.4 mph - N/A   Clear
3:35 PM 33.8 °F 24.8 °F 10.4 °F 38% 30.28 in 10.0 mi NNW 12.7 mph - N/A   Clear
3:55 PM 32.0 °F 23.0 °F 10.4 °F 41% 30.28 in 10.0 mi NNW 11.5 mph 18.4 mph N/A   Clear
4:15 PM 32.0 °F 23.0 °F 10.4 °F 41% 30.28 in 10.0 mi NW 11.5 mph 18.4 mph N/A   Clear
4:35 PM 32.0 °F 22.5 °F 12.2 °F 44% 30.29 in 10.0 mi NW 12.7 mph - N/A   Clear
4:55 PM 32.0 °F 23.6 °F 10.4 °F 41% 30.29 in 10.0 mi NNW 10.4 mph - N/A   Clear
5:15 PM 32.0 °F 26.4 °F 12.2 °F 44% 30.29 in 10.0 mi NNW 5.8 mph - N/A   Clear
5:35 PM 30.2 °F 23.4 °F 12.2 °F 47% 30.29 in 10.0 mi NNW 6.9 mph - N/A   Clear
5:55 PM 30.2 °F 25.4 °F 12.2 °F 47% 30.29 in 10.0 mi NNW 4.6 mph - N/A   Clear
6:15 PM 28.4 °F 22.2 °F 14.0 °F 55% 30.30 in 10.0 mi North 5.8 mph - N/A   Clear
6:55 PM 26.6 °F 20.0 °F 10.4 °F 51% 30.30 in 10.0 mi North 5.8 mph - N/A   Clear
7:15 PM 26.6 °F 22.6 °F 10.4 °F 51% 30.30 in 10.0 mi NNW 3.5 mph - N/A   Clear
7:35 PM 26.6 °F 20.0 °F 10.4 °F 51% 30.31 in 10.0 mi NNW 5.8 mph - N/A   Partly Cloudy
7:55 PM 26.6 °F 20.0 °F 10.4 °F 51% 30.31 in 10.0 mi NNW 5.8 mph - N/A   Clear
8:15 PM 26.6 °F 20.0 °F 10.4 °F 51% 30.31 in 10.0 mi North 5.8 mph - N/A   Clear
8:35 PM 24.8 °F 17.9 °F 10.4 °F 54% 30.31 in 10.0 mi North 5.8 mph - N/A   Clear
8:55 PM 24.8 °F 19.1 °F 10.4 °F 54% 30.31 in 10.0 mi NNE 4.6 mph - N/A   Clear
9:15 PM 24.8 °F 19.1 °F 10.4 °F 54% 30.32 in 10.0 mi North 4.6 mph - N/A   Clear
9:35 PM 24.8 °F 19.1 °F 10.4 °F 54% 30.32 in 10.0 mi North 4.6 mph - N/A   Clear
9:55 PM 23.0 °F 17.0 °F 10.4 °F 59% 30.32 in 10.0 mi North 4.6 mph - N/A   Clear
10:15 PM 23.0 °F 18.4 °F 10.4 °F 59% 30.33 in 10.0 mi North 3.5 mph - N/A   Mostly Cloudy
10:35 PM 24.8 °F 19.1 °F 10.4 °F 54% 30.33 in 10.0 mi North 4.6 mph - N/A   Overcast
10:55 PM 24.8 °F 16.9 °F 10.4 °F 54% 30.33 in 10.0 mi North 6.9 mph - N/A   Overcast
11:15 PM 24.8 °F 16.1 °F 10.4 °F 54% 30.33 in 10.0 mi North 8.1 mph - N/A   Overcast
11:35 PM 24.8 °F 16.9 °F 8.6 °F 50% 30.33 in 10.0 mi North 6.9 mph - N/A   Overcast
11:55 PM 24.8 °F 14.6 °F 8.6 °F 50% 30.33 in 10.0 mi North 10.4 mph - N/A   Overcast